This demonstration page uses our WeatherBlox Daily Observations layout. Learn more.

Left ArrowRight Arrow

39.12711, -84.51439

Hourly Observations for June 7, 2018

Temp ( °F °C ) Dew Point ( °F °C ) Humidity (%) Winds ( mph kmh ) Pressure ( in mb ) Visibility ( mi km ) Precip ( " mm )
12:53 am 00:53 Clear 58 14.4 55 12.8 90 90 N N/A 29.98 1015 10 16 N/A
1:53 am 01:53 Clear 57 13.9 56 13.3 96 96 N N/A 30.00 1016 10 16 N/A
2:53 am 02:53 Partly Cloudy 57 13.9 56 13.3 96 96 NE 3 6 29.99 1016 10 16 N/A
3:53 am 03:53 Clear 56 13.3 55 12.8 97 97 N N/A 30.01 1016 10 16 N/A
4:53 am 04:53 Clear 56 13.3 55 12.8 97 97 N N/A 30.01 1016 10 16 N/A
5:53 am 05:53 Clear 56 13.3 55 12.8 97 97 N N/A 30.02 1017 10 16 N/A
6:53 am 06:53 Sunny 56 13.3 55 12.8 97 97 N N/A 30.05 1018 10 16 N/A
7:53 am 07:53 Sunny 60 15.6 56 13.3 86 86 N N/A 30.05 1018 10 16 N/A
8:53 am 08:53 Sunny 63 17.2 57 13.9 81 81 S 3 6 30.07 1018 10 16 N/A
9:53 am 09:53 Mostly Cloudy 68 20 58 14.4 70 70 S 5 7 30.08 1019 10 16 N/A
10:53 am 10:53 Partly Cloudy 71 21.7 59 15 66 66 S 9 15 30.09 1019 10 16 N/A
11:53 am 11:53 Sunny 75 23.9 60 15.6 60 60 SSW 7 11 30.08 1019 10 16 N/A
12:53 pm 12:53 Sunny 78 25.6 61 16.1 56 56 SSE 7 11 30.08 1019 10 16 N/A
1:53 pm 13:53 Sunny 81 27.2 64 17.8 57 57 S 9 15 30.05 1018 10 16 N/A
2:53 pm 14:53 Sunny 83 28.3 66 18.9 57 57 S 13 20 30.03 1017 10 16 N/A
3:53 pm 15:53 Sunny 84 28.9 67 19.4 57 57 S 9 15 30.03 1017 10 16 N/A
4:53 pm 16:53 Mostly Sunny 84 28.9 67 19.4 57 57 S 10 17 30.02 1017 10 16 N/A
5:53 pm 17:53 Sunny 83 28.3 67 19.4 59 59 S 12 19 30.03 1017 10 16 N/A
6:53 pm 18:53 Mostly Sunny 83 28.3 67 19.4 59 59 S 8 13 30.02 1017 9 14 N/A
7:53 pm 19:53 Sunny 81 27.2 68 20 65 65 S 7 11 30.03 1017 10 16 N/A
8:53 pm 20:53 Sunny 78 25.6 67 19.4 69 69 S 3 6 30.04 1017 10 16 N/A
9:53 pm 21:53 Clear 74 23.3 67 19.4 79 79 SSW 6 9 30.05 1018 10 16 N/A
10:53 pm 22:53 Cloudy 75 23.9 67 19.4 76 76 N N/A 30.08 1019 10 16 N/A
11:53 pm 23:53 Mostly Cloudy 78 25.6 66 18.9 67 67 NNW 6 9 30.10 1019 10 16 N/A

Powered by AerisWeather